Location: Pedholt
(56.0260°N, 10.2097°E)
Time: 01:44:58
(UTC+00:00)

Transit 2A Rocket - Pass Details

Date: 30 July 2021
Orbit: 586 x 916 km, 66.7° (Epoch: 21 September)

Event Time Altitude Azimuth Distance (km) Brightness Sun altitude
Rises 17:00:20 0° 272° (W) 2,969 9.8 18.6°
Reaches altitude 10° 17:02:49 10° 284° (WNW) 2,107 9.6 18.3°
Maximum altitude 17:06:59 29° 345° (NNW) 1,312 6.7 17.7°
Drops below altitude 10° 17:11:29 10° 44° (NE) 2,298 7.2 17.1°
Sets 17:14:20 0° 56° (NE) 3,289 7.8 16.7°
